Hourly Data Report for March 28, 2021

KUGAARUK CLIMATE
NUNAVUT
Current Station Operator: ECCC - MSC

68°32'15.060" N
89°47'47.020" W
15.80 m
2303094
71407
NBB

Download Data

Hourly Data (March 2021)
Hourly Data Report for March 28, 2021
TIME
LST
Temp Definition
°C
Dew Point Definition
°C
Rel Hum Definition
%
Precip. Amount Definition
mm

Wind Dir Definition
10's deg

Wind Spd Definition
km/h
Visibility Definition
km
Stn Press Definition
kPa
Hmdx Definition


Wind Chill Definition


Weather Definition


00:00 -26.9 -29.9 76 0.0 24 14   100.78   -37 LegendNANA
01:00 -27.4 -30.3 76 0.0 25 16   100.78   -39 LegendNANA
02:00 -26.8 -29.7 76 0.0 25 17   100.81   -38 LegendNANA
03:00 -26.8 -29.8 76 0.0 23 17   100.84   -38 LegendNANA
04:00 -27.4 -30.4 76 0.0 23 18   100.85   -39 LegendNANA
05:00 -28.9 -32.0 75 0.0 24 16   100.88   -40 LegendNANA
06:00 -28.1 -31.4 73 0.0 24 18   100.88   -40 LegendNANA
07:00 -28.2 -31.8 71 0.0 24 14   100.91   -39 LegendNANA
08:00 -27.8 -31.8 69 0.0 23 19   100.93   -40 LegendNANA
09:00 -27.4 -31.9 66 0.0 26 15   100.94   -38 LegendNANA
10:00 -27.5 -32.0 66 0.0 25 20   100.95   -40 LegendNANA
11:00 -28.0 -32.4 66 0.0 25 21   100.99   -41 LegendNANA
12:00 -28.5 -32.9 66 0.0 23 31   101.00   -44 LegendNANA
13:00 -28.9 -33.2 66 0.0 25 22   101.06   -42 LegendNANA
14:00 -29.5 -33.9 66 0.0 26 20   101.11   -42 LegendNANA
15:00 -29.3 -33.6 67 0.0 25 18   101.12   -42 LegendNANA
16:00 -29.7 -33.8 67 0.0 25 26   101.13   -44 LegendNANA
17:00 -30.2 -34.1 69 0.0 26 28   101.12   -45 LegendNANA
18:00 -31.5 -35.3 69 0.0 24 20   101.21   -45 LegendNANA
19:00 -30.9 -34.6 70 0.2 26 29   101.18   -47 LegendNANA
20:00 -31.4 -35.1 70 0.0 26 30   101.20   -47 LegendNANA
21:00 -31.8 -35.5 70 0.0 26 32   101.21   -48 LegendNANA
22:00 -32.5 -36.2 69 0.0 24 27   101.24   -48 LegendNANA
23:00 -33.1 -36.9 69 0.0 25 20   101.23   -47 LegendNANA

Notes on Data Quality.

Legend

  • E = Estimated
  • M = Missing
  • NA = Not Available*
  • [empty] = Indicates an unobserved value
Date modified: